Location: *
(46.1866°S, 178.5290°W)
Time: 15:23:53
(UTC+00:00)

Cosmos 1461 - Pass Details

Date: 03 October 2021
Orbit: 520 x 642 km, 65.0° (Epoch: 18 October)

Event Time Altitude Azimuth Distance (km) Brightness Sun altitude
Rises 16:09:15 0° 219° (SW) 2,940 6.3 -12.8°
Reaches altitude 10° 16:11:33 10° 222° (SW) 2,041 5.5 -12.4°
Maximum altitude 16:16:08 63° 302° (WNW) 727 3.1 -11.7°
Drops below altitude 10° 16:20:44 10° 22° (NNE) 2,047 5.8 -10.9°
Sets 16:23:03 0° 25° (NNE) 2,949 6.6 -10.5°
